Regional Weather Roundup
Issued by NWS

Home | Current Version | Previous Version | Text Only | Print | Product List | Glossary On
Versions: 1 2 3 4 5 6 7 8 9 10 11 12 13 14 15 16 17 18 19 20 21 22 23 24 25 26 27 28 29 30 31 32 33 34 35 36 37 38 39 40 41 42 43 44 45 46 47 48 49 50
000
ASUS43 KLMK 181810
RWRKY
KENTUCKY REGIONAL WEATHER ROUNDUP
NATIONAL WEATHER SERVICE LOUISVILLE KY
200 PM EDT WED MAY 18 2022

NOTE "FAIR" INDICATES FEW OR NO CLOUDS BELOW 12,000 FEET
WITH NO SIGNIFICANT WEATHER AND/OR OBSTRUCTIONS TO VISIBILITY.

KYZ001>023-026-027-061>063-070>075-181900-
WESTERN AND SOUTH CENTRAL KENTUCKY

CITY           SKY/WX    TMP DP  RH WIND       PRES   REMARKS
PADUCAH        PTSUNNY   78  63  59 S12       29.82F
HENDERSON      LGT RAIN  70  62  76 W10       29.84S
OWENSBORO      PTSUNNY   74  61  63 S16       29.81F
HOPKINSVILLE   PTSUNNY   79  63  57 S10G20    29.81F
BOWLING GREEN  CLOUDY    80  58  46 S13G29    29.86F
GLASGOW        PTSUNNY   78  58  51 S12G22    29.84F
$$

KYZ024-025-028>034-038-045-046-053-181900-
NORTH CENTRAL KENTUCKY

CITY           SKY/WX    TMP DP  RH WIND       PRES   REMARKS
LOUISVILLE/SDF CLOUDY    77  58  51 S16       29.81F
LOUISVILLE/LOU PTSUNNY   76  57  51 S14       29.81F
FORT KNOX      CLOUDY    76  57  50 S13G18    29.81S
$$

KYZ035>037-039>044-047>052-055>060-089>105-181900-
NORTHEAST KENTUCKY

CITY           SKY/WX    TMP DP  RH WIND       PRES   REMARKS
LEXINGTON      PTSUNNY   77  57  50 S9        29.87F
COVINGTON      CLOUDY    72  59  63 VRB6      29.85F
FRANKFORT      MOSUNNY   78  57  48 SE12      29.82F
$$

KYZ054-064>069-076>088-106>120-181900-
SOUTHEAST KENTUCKY

CITY           SKY/WX    TMP DP  RH WIND       PRES   REMARKS
JACKSON        PTSUNNY   78  57  48 VRB5      29.98F
LONDON         CLOUDY    77  53  43 SW9       29.95F
SOMERSET       PTSUNNY   79  57  47 VRB6G13   29.91F
MIDDLESBORO    PTSUNNY   79  53  40 SW5       30.01F
MONTICELLO     CLOUDY    80  57  45 S10       29.94F
$$




USA.gov is the U.S. government's official web portal to all federal, state and local government web resources and services.